Theta_e
322 322 322 322 322 321 322 322 323 324 324 324 325 327 328 329 329 325 319 322 325 333 332 328 327 323 324 317 319 309 300 296 297 296 299 300 300 301 307 311 308 314 312 315 327
321 321 321 322 321 322 321 322 323 323 324 324 325 326 327 328 320 314 327 334 335 334 325 324 319 320 316 315 317 306 297 298 303 300 298 301 301 302 307 307 307 309 314 321 326
320 320 321 321 321 321 321 322 322 322 323 325 325 325 325 324 313 312 328 335 336 333 326 324 321 318 313 314 313 310 298 302 306 303 301 301 299 303 305 302 306 310 314 320 323
320 319 320 320 320 320 321 321 321 322 323 323 324 325 324 318 300 313 329 332 335 328 321 319 315 311 309 308 312 304 308 307 308 301 300 299 301 299 305 306 306 311 318 320 321
319 318 319 319 320 320 320 321 321 321 322 322 323 321 317 310 308 319 328 331 330 322 316 316 311 310 305 309 311 308 309 312 313 304 300 300 299 299 303 300 308 316 319 319 320
318 318 318 318 319 319 320 321 321 320 321 321 322 321 310 301 317 318 325 326 324 320 316 316 314 314 309 308 308 312 311 311 312 306 301 297 296 297 299 309 313 316 317 318 319
317 317 317 318 319 319 320 320 320 320 320 320 320 315 306 305 315 317 324 322 322 318 314 319 315 311 310 307 312 310 304 305 307 307 302 299 295 296 298 311 312 314 314 316 318
317 316 317 317 318 318 318 319 319 319 320 320 319 306 299 310 315 315 317 317 322 321 317 316 315 311 310 311 309 304 303 296 307 303 302 299 291 298 300 308 309 311 312 314 316
312 316 316 317 317 317 318 318 318 319 319 318 308 301 295 312 307 311 314 313 317 316 316 318 314 309 309 301 300 302 292 294 299 302 301 298 293 300 299 305 304 309 311 313 314
312 315 316 316 316 316 317 318 317 315 312 311 309 296 299 298 305 312 312 314 314 314 311 310 308 304 303 299 290 295 293 296 299 301 299 297 294 298 300 297 301 303 309 310 313
313 312 316 316 316 317 314 308 300 298 304 297 297 295 298 303 308 306 312 311 310 308 301 305 299 295 298 300 298 298 296 295 299 301 297 296 296 298 299 296 295 296 300 306 312
312 311 316 316 316 316 309 298 297 297 294 301 301 299 300 303 298 303 311 303 303 299 303 299 295 300 302 301 301 299 295 295 298 299 298 296 296 298 298 300 299 300 298 299 303
311 312 315 315 315 311 303 300 303 301 292 295 299 298 298 301 296 297 305 302 300 298 298 295 298 302 301 300 298 298 296 295 295 295 295 292 293 294 297 299 301 300 301 301 302
310 311 314 315 308 305 301 303 304 298 280 286 293 297 299 298 291 304 307 300 298 296 298 298 300 299 299 298 300 294 299 298 295 295 290 296 289 294 298 297 298 302 302 303 302
310 311 314 314 305 301 303 303 300 296 271 284 290 302 299 293 293 297 305 301 294 295 297 294 295 296 296 297 300 296 300 299 296 295 290 287 286 291 295 295 298 301 304 306 306
309 311 313 309 306 305 305 303 298 280 270 276 291 291 291 291 290 297 298 301 300 295 295 293 296 298 298 300 301 300 296 294 294 292 287 292 289 290 291 296 300 302 304 306 307
309 310 310 307 300 305 305 298 279 274 278 280 284 289 287 287 288 289 290 291 288 285 286 290 291 298 301 297 300 299 295 286 285 284 284 290 286 294 294 294 298 301 302 303 305
309 310 308 307 306 305 301 287 274 272 272 283 284 287 284 285 285 286 285 284 291 288 286 284 283 295 302 298 296 296 295 284 277 280 284 286 285 292 298 301 297 298 298 296 295
309 307 304 304 306 304 291 278 274 277 277 284 285 281 282 285 283 285 282 283 287 289 283 285 287 298 300 299 300 296 292 294 282 272 277 283 287 292 293 293 299 299 294 295 295
301 301 299 305 305 299 286 279 276 282 287 286 278 282 277 282 280 282 281 285 285 291 292 288 282 294 298 301 300 297 300 289 288 278 274 280 282 289 290 294 294 293 295 297 296
299 286 298 306 303 290 281 276 281 285 288 284 281 281 281 282 281 281 281 284 287 289 292 289 288 287 295 294 294 294 293 293 292 285 280 281 285 289 293 295 297 299 301 300 298
287 283 300 303 286 286 282 281 286 283 285 285 284 284 283 284 282 283 282 286 290 289 287 290 287 281 285 297 299 299 295 295 288 285 287 282 286 291 295 297 298 299 301 301 296
285 288 300 298 281 281 284 282 283 282 282 283 282 284 285 284 281 284 285 291 291 289 288 291 286 280 284 291 294 294 296 296 295 288 287 284 287 289 290 292 293 294 296 294 294
287 283 287 287 282 282 281 279 280 283 283 284 283 283 282 281 283 281 284 289 293 291 295 295 286 284 279 285 291 291 294 296 294 288 288 288 291 294 288 289 291 292 293 292 294
285 283 284 279 283 279 281 282 280 279 282 283 282 281 281 278 279 279 281 282 285 292 292 292 284 286 287 288 289 290 292 294 293 294 289 291 291 295 297 296 292 294 291 291 292
283 283 281 275 281 278 281 280 281 280 281 280 280 281 282 280 280 278 280 281 281 284 284 291 284 287 284 287 288 286 290 295 295 295 294 294 293 300 301 292 289 291 290 291 291
287 286 286 281 276 280 275 277 282 282 282 283 282 281 281 283 285 284 285 285 284 283 283 286 282 280 277 286 286 283 287 290 294 296 296 291 296 300 292 294 297 291 290 293 293
Wind_Speed
22 20 19 19 17 15 17 15 12 10 9 7 6 5 6 6 2 3 10 9 5 5 4 3 4 4 7 6 6 2 1 3 4 5 5 4 4 1 2 6 2 3 4 3 12
24 23 21 20 19 17 15 15 13 11 9 8 7 5 5 5 5 12 5 14 8 7 6 5 4 6 4 3 3 2 3 8 5 4 4 4 6 10 5 4 4 3 1 4 14
24 24 23 21 21 19 17 15 14 12 10 8 6 6 5 4 2 6 18 14 11 9 6 3 4 3 3 4 2 1 4 3 4 5 4 4 2 5 8 4 9 10 8 10 12
25 24 25 23 21 21 19 17 15 13 12 9 7 7 7 3 10 3 20 25 14 7 7 7 4 3 5 8 4 4 4 6 6 6 1 4 5 4 7 8 3 9 11 12 16
27 25 25 24 23 21 20 18 17 15 12 10 9 4 7 7 7 5 7 17 7 8 9 8 6 5 5 5 6 4 2 6 11 10 6 2 6 5 9 3 2 8 11 15 14
29 27 25 24 24 22 21 18 17 15 14 12 11 5 3 19 4 8 6 7 6 9 7 7 9 7 5 5 5 6 2 10 6 14 6 4 3 4 6 4 5 9 12 12 14
30 29 26 25 24 23 21 18 17 15 13 13 11 4 3 12 2 4 6 7 4 7 8 5 4 6 7 3 6 2 5 14 14 11 7 2 6 8 3 5 7 9 8 8 8
30 31 28 26 25 24 21 18 17 13 13 13 10 4 7 3 2 2 1 2 5 3 4 4 6 2 3 7 4 5 5 7 6 5 6 7 10 8 6 8 10 9 7 8 10
20 32 29 28 26 26 22 18 14 12 14 14 4 4 6 3 5 5 2 5 7 3 3 5 5 2 4 5 4 11 9 17 16 12 2 2 6 7 7 9 9 9 9 9 7
22 29 31 29 28 25 23 19 13 9 8 5 0 4 6 8 6 7 3 3 4 8 4 5 5 8 5 9 17 12 15 12 12 6 1 6 17 9 3 7 11 9 8 8 9
27 23 33 31 29 28 22 11 8 2 13 8 10 2 1 5 5 6 5 4 4 4 13 10 12 19 31 19 5 8 5 14 10 4 7 15 15 10 6 5 9 9 9 10 13
26 23 34 34 33 31 17 12 20 6 15 4 5 1 2 2 5 2 11 10 7 10 12 7 18 26 18 13 16 12 13 13 5 4 6 5 15 16 7 9 9 13 11 12 10
29 25 35 36 35 26 23 19 11 10 5 11 2 15 3 1 2 8 12 6 5 10 17 20 26 20 19 19 17 18 17 8 5 4 2 3 11 8 7 11 9 9 9 10 14
32 30 33 36 28 21 21 13 13 5 6 6 8 7 4 6 3 5 10 4 4 10 8 21 27 19 16 24 17 24 9 6 6 6 10 8 16 10 11 13 9 17 14 16 13
32 28 41 39 21 23 29 14 10 4 8 7 9 4 9 9 8 4 3 5 14 13 8 6 11 23 23 24 24 16 7 8 7 7 1 4 4 7 8 11 12 19 19 19 17
33 31 36 29 15 20 20 16 6 6 8 5 8 14 11 8 2 7 4 4 2 3 13 11 11 16 26 16 22 6 7 4 2 2 11 17 9 11 11 12 14 17 14 20 16
34 34 27 24 18 24 20 15 8 8 2 10 11 16 18 11 10 6 9 11 8 13 18 20 19 17 11 14 18 12 12 6 11 9 16 10 7 26 4 9 11 18 18 17 14
33 35 31 20 21 27 17 14 8 5 9 4 10 17 14 10 8 7 11 8 15 6 1 16 18 19 21 20 21 31 25 7 11 11 14 5 14 14 11 15 11 15 11 6 9
30 13 17 15 26 22 19 15 12 18 12 12 17 16 11 10 8 8 9 9 11 19 13 6 8 12 10 9 23 22 22 14 6 4 3 6 13 9 8 9 15 15 7 11 11
16 13 18 27 26 20 17 14 7 9 12 16 8 10 11 19 8 15 15 11 9 21 15 9 10 11 24 10 16 15 22 15 6 10 7 6 10 17 12 14 11 11 14 15 11
11 5 15 31 20 18 20 9 5 5 12 8 7 8 7 13 10 11 11 2 19 19 23 10 9 7 12 18 18 15 15 10 8 7 6 11 15 10 16 16 18 19 19 19 14
5 5 19 21 17 11 17 11 8 6 4 5 6 7 12 13 15 12 13 7 14 16 22 17 5 19 25 15 17 25 20 23 14 16 15 2 17 4 10 18 19 20 22 17 9
5 9 15 23 14 11 12 5 5 7 5 4 4 4 4 9 7 10 8 8 8 20 15 15 9 14 8 15 4 28 23 21 17 3 22 18 22 3 4 6 9 9 9 5 6
6 11 8 2 3 16 20 5 6 3 5 6 6 6 6 5 3 9 6 3 10 14 16 15 11 12 18 12 7 18 27 31 28 20 19 21 31 23 5 8 8 9 8 8 9
0 5 5 7 14 9 10 14 11 6 5 5 2 6 7 5 3 5 6 1 3 2 6 10 7 19 24 27 21 16 29 25 29 31 27 30 34 35 18 11 10 14 5 7 11
4 8 5 5 16 15 10 17 17 6 9 6 5 9 5 6 12 7 5 6 6 2 7 3 11 9 19 25 31 28 21 28 31 26 27 29 29 27 20 8 8 8 6 9 11
1 3 8 6 7 14 10 10 17 12 5 7 10 6 12 22 8 3 5 1 4 2 3 6 5 7 23 24 22 23 29 25 23 29 28 29 39 35 8 15 20 9 12 16 15
Wind_Direction
220 219 223 217 214 224 219 216 219 211 213 229 252 259 243 230 244 212 219 217 192 108 77 98 42 88 56 10 354 101 47 207 241 178 244 146 167 183 109 120 244 195 170 273 134
219 216 220 217 214 211 220 219 213 216 215 219 232 248 248 217 216 235 244 230 216 147 119 166 145 115 91 66 10 293 167 215 218 205 233 216 182 166 143 138 248 252 223 107 137
217 215 212 219 216 209 208 217 220 209 209 215 219 235 231 183 305 236 209 230 214 183 146 153 136 114 122 103 158 254 213 246 276 248 236 202 247 185 126 231 217 201 172 157 161
218 214 214 210 211 213 209 211 217 205 208 208 225 211 211 187 224 210 198 203 197 187 125 127 114 120 131 163 164 229 253 259 292 345 276 203 144 208 189 219 226 195 160 166 175
215 215 213 206 206 208 209 206 211 203 201 203 203 195 121 219 230 333 235 202 164 161 161 156 143 142 168 150 154 183 315 339 327 304 279 187 217 206 227 257 45 135 153 181 184
211 210 209 208 204 202 207 205 205 200 196 201 197 158 166 226 22 348 92 144 164 169 182 156 171 164 154 180 191 155 2 323 305 293 278 228 237 154 243 146 134 157 178 186 191
213 204 204 204 201 199 200 201 199 198 191 197 192 139 231 224 95 19 149 181 162 161 173 217 152 155 134 149 180 142 353 315 282 265 246 165 269 228 205 151 182 196 185 189 199
223 208 197 201 196 197 193 191 193 186 185 189 169 100 236 247 230 39 305 78 136 167 133 172 69 9 201 111 68 124 107 271 289 216 260 128 260 251 186 165 202 209 202 194 205
248 204 195 194 194 194 181 178 176 174 181 168 145 157 239 126 199 173 152 152 141 130 177 93 121 175 164 146 166 180 210 216 252 204 223 208 262 249 187 190 219 209 210 212 218
219 224 195 191 190 186 172 161 160 155 149 81 176 110 224 211 153 137 161 119 129 147 133 161 175 200 221 190 206 202 208 206 201 185 183 197 258 265 244 201 227 220 219 212 216
225 228 193 187 184 178 160 131 125 171 187 187 194 282 0 152 103 167 157 127 107 175 193 186 201 208 209 212 204 174 196 232 235 177 160 222 251 261 247 238 253 237 227 220 224
233 217 204 182 178 170 155 168 181 157 180 205 172 152 35 336 109 97 140 176 182 197 197 194 227 216 215 212 215 230 213 224 272 142 194 266 255 252 206 235 209 233 233 231 230
223 202 209 182 174 160 174 176 147 114 131 199 164 203 193 107 120 188 164 161 207 196 192 215 220 209 211 213 210 216 226 211 235 91 307 333 263 239 243 245 239 232 230 233 226
216 209 205 177 169 165 178 166 152 112 100 198 203 214 150 137 257 153 191 128 238 237 220 220 228 196 203 214 201 218 187 170 167 168 232 187 261 238 230 227 227 245 227 234 225
209 203 195 170 160 179 169 145 122 68 185 191 165 163 165 175 140 183 165 201 208 205 181 235 214 207 209 208 198 236 161 184 185 207 237 216 272 260 179 232 230 241 237 232 226
202 191 185 172 175 163 141 133 86 136 212 171 141 169 159 199 169 131 139 101 352 227 252 265 310 256 213 211 207 131 119 84 45 148 240 228 214 223 211 205 230 240 240 241 231
198 196 197 162 170 147 146 146 151 194 271 153 176 175 181 177 182 144 166 188 176 188 234 258 254 254 190 191 189 190 161 194 214 225 240 185 195 236 226 208 213 229 234 235 235
191 196 194 168 152 150 151 159 172 178 194 176 159 178 182 144 204 153 147 187 208 180 24 231 248 219 192 203 190 199 189 185 188 195 224 155 226 242 218 210 215 229 233 243 243
178 174 170 149 156 150 157 177 177 174 163 140 131 164 186 179 133 155 184 206 193 196 202 218 242 181 220 179 175 190 206 197 100 13 61 194 277 283 252 244 223 231 231 240 244
176 185 175 158 159 149 166 173 143 167 122 139 136 173 172 180 141 176 174 208 204 189 197 224 281 231 204 220 216 180 200 191 192 174 214 227 247 232 195 215 234 245 236 240 232
157 127 166 157 145 162 177 173 134 156 131 136 143 131 174 169 172 183 194 292 196 187 193 218 210 273 228 200 194 194 191 218 211 161 198 251 246 197 199 208 217 225 229 227 223
129 157 169 150 148 171 172 151 119 131 110 118 112 105 160 154 181 185 204 215 180 186 192 198 225 245 254 250 211 216 205 200 205 205 219 249 251 192 215 207 207 213 223 223 205
122 121 164 157 158 154 150 89 106 137 134 120 91 103 124 159 153 194 183 218 145 169 189 177 210 242 270 208 215 210 217 199 212 285 222 228 256 348 240 238 239 249 252 221 179
125 141 141 105 101 139 151 141 115 76 95 99 118 96 108 143 235 181 220 186 181 189 183 164 215 228 231 280 247 203 211 213 212 224 234 223 250 238 252 236 248 249 237 200 189
350 108 81 144 138 117 148 164 148 132 88 129 117 170 143 115 70 217 166 124 298 130 198 207 248 220 233 251 267 265 229 213 216 217 217 226 229 237 229 240 243 244 212 197 203
123 129 66 74 144 134 165 193 171 129 143 206 116 103 136 186 197 200 155 163 176 289 230 256 261 277 238 231 245 256 271 218 225 228 234 238 246 249 230 190 231 236 208 215 214
123 59 108 119 114 154 167 155 182 140 50 84 130 125 198 219 229 351 75 59 237 278 220 196 230 236 268 251 235 244 231 251 220 222 222 225 235 245 219 213 224 214 200 216 211